[[{"header":{"parameterUnit":"m.s-1","parameterCategory":2,"la1":30.2991,"la2":30.254,"lo1":-89.0895,"lo2":-89.0444,"dy":0.0017,"dx":0.0017,"nx":28,"ny":28,"refTime":"2024-12-26T03:00:00:Z","depth":"0","parameterNumber":2,"parameterNumberName":"U-component_of_CURRENTS"},"data":[0,0,0,0,0,0,0,0,0,0,0,0,0,0,0,0,0,0,0,0,0,0,0,0,0,0,0,0,0,0,0,0,0,0,0,0,0,0,0,0,0,0,0,0,0,0,0,0,0,0,0,0,0,0,0,0,0,0,0.2271,0.2271,0,0.2259,0.2259,0.2258,0.2238,0.2238,0.2237,0.2237,0.2208,0.2208,0.2207,0,0,0,0,0,0,0,0,0,0,0,0,0,0.2293,0.2292,0.2271,0.2271,0.2271,0.2259,0.2259,0.2258,0.2238,0.2238,0.2237,0.2237,0.2208,0.2208,0.2207,0,0,0,0,0,0,0,0,0,0,0,0,0,0.2281,0.2292,0.2271,0.2261,0.226,0.2259,0.2259,0.2258,0.2238,0.2238,0.2237,0.2237,0.2209,0.2208,0.2207,0.2209,0,0,0.2204,0.2204,0,0,0,0,0,0,0,0,0.2282,0.228,0.2262,0.2261,0.226,0.2251,0.2256,0.2242,0.2238,0.2245,0.2237,0.2237,0.2222,0.222,0.2217,0.2208,0.2207,0.2204,0.2204,0.2204,0.2203,0,0,0,0,0,0,0,0.2282,0.228,0.2265,0.2262,0.2261,0.2262,0.226,0.2253,0.2234,0.2244,0.2243,0.2244,0.2221,0.2218,0.2216,0.2206,0.2204,0.2204,0.2203,0.2203,0.2225,0.2226,0,0,0,0,0,0,0.2287,0.2281,0.2265,0.2265,0.2272,0.2262,0.2259,0.2253,0.2234,0.2232,0.2244,0.2243,0.2219,0.2217,0.2215,0.2232,0.2204,0.2203,0.2202,0.2224,0.2225,0.2226,0,0,0,0,0,0,0.2287,0.2285,0.2266,0.2274,0.2272,0.2262,0.2255,0.2253,0.2252,0.2235,0.2232,0.2247,0.2219,0.2216,0.2217,0.223,0.2202,0.2202,0.2222,0.2224,0.2225,0.2256,0,0,0,0,0,0,0.2287,0.2285,0.2283,0.2274,0.2272,0.227,0.2256,0.2253,0.2254,0.2253,0.2236,0.2233,0.2218,0.2219,0.2217,0.2228,0.2201,0.2221,0.2223,0.2225,0.2254,0.2259,0.2263,0,0,0,0,0,0.2288,0.2285,0.2283,0.2282,0.2269,0.2271,0.227,0.226,0.2255,0.2258,0.225,0.2233,0.223,0.2219,0.2216,0.2228,0.222,0.2222,0.2225,0.2252,0.2258,0.2263,0,0,0,0,0,0,0.2291,0.2282,0.228,0.2274,0.2276,0.2268,0.2269,0.2266,0.2262,0.226,0.2243,0.2239,0.2249,0.2237,0.2225,0.2243,0.2224,0.2226,0.2246,0.2251,0.2256,0.2262,0.22,0,0,0,0,0,0.2293,0.2287,0.2285,0.2281,0.2284,0.2279,0.2279,0.2276,0.2271,0.2269,0.2258,0.2253,0.2257,0.2252,0.2252,0.2256,0.2262,0.2264,0.2269,0.2273,0.2277,0.2308,0.2316,0.2234,0.2234,0.2234,0,0,0.2291,0.2288,0.2284,0.2282,0.2281,0.2286,0.2278,0.2281,0.2285,0.2267,0.2268,0.2269,0.2264,0.2272,0.2275,0.2261,0.23,0.2276,0.2279,0.2281,0.2311,0.2319,0.2326,0.2235,0.2235,0.2235,0,0,0.2289,0.2286,0.2283,0.2289,0.2294,0.2293,0.2298,0.2296,0.2297,0.2302,0.2297,0.2308,0.2299,0.2304,0.2304,0.2335,0.2328,0.2334,0.2354,0.2384,0.2391,0.2397,0.2417,0.2425,0.2331,0.2331,0.2331,0,0.229,0.2284,0.2285,0.2289,0.2295,0.2299,0.2304,0.2308,0.2308,0.2317,0.2306,0.2324,0.2317,0.234,0.2349,0.2345,0.2357,0.2331,0.2389,0.2396,0.2401,0.2421,0.2429,0.2333,0.2332,0.2332,0.2332,0,0.2288,0.2287,0.2289,0.2293,0.2303,0.2308,0.2319,0.2331,0.2334,0.2338,0.2364,0.2363,0.2375,0.2378,0.2368,0.2409,0.2404,0.2396,0.2374,0.2411,0.2429,0.2437,0.2335,0.2335,0.2334,0.2334,0,0,0.2273,0.2284,0.2283,0.2284,0.2306,0.2306,0.2333,0.2353,0.2367,0.2379,0.2402,0.2416,0.2423,0.2426,0.2425,0.2446,0.2495,0.2437,0.2438,0.2454,0.256,0.2544,0.255,0.2498,0.2499,0.2501,0.2556,0,0.2269,0.227,0.2284,0.2288,0.2289,0.2316,0.2336,0.236,0.238,0.2403,0.2427,0.2444,0.244,0.2447,0.2473,0.2493,0.2517,0.248,0.2524,0.2525,0.2504,0.256,0.2491,0.2534,0.2564,0.2565,0.2566,0,0.2258,0.226,0.2263,0.2279,0.2283,0.2292,0.2328,0.2349,0.2399,0.2419,0.2458,0.2474,0.2519,0.2502,0.2566,0.2544,0.2557,0.2568,0.257,0.255,0.2524,0.2502,0.2547,0.2496,0.2578,0.2577,0.2576,0,0.2229,0.2241,0.224,0.2246,0.227,0.2283,0.2302,0.2351,0.2377,0.2432,0.2462,0.2513,0.2545,0.2578,0.2614,0.2592,0.2681,0.2651,0.265,0.2649,0.2596,0.2587,0.2594,0.2697,0.2697,0.2697,0.2697,0,0.221,0.2206,0.2222,0.2217,0.2225,0.2254,0.2275,0.2312,0.2371,0.2403,0.2463,0.2505,0.2568,0.2626,0.264,0.2684,0.2708,0.267,0.2671,0.2605,0.2596,0.2553,0.2509,0.2699,0.2699,0.2698,0.2698,0,0.2174,0.2186,0.2182,0.2201,0.2208,0.2212,0.2258,0.2275,0.2341,0.2393,0.2415,0.2518,0.2595,0.2656,0.2721,0.272,0.267,0.2758,0.2676,0.2665,0.2592,0.2551,0.2393,0.2315,0.2757,0.2757,0.2757,0,0.2154,0.2148,0.2161,0.2158,0.2163,0.2177,0.219,0.2253,0.2283,0.2393,0.2418,0.2524,0.2586,0.2697,0.2727,0.277,0.2668,0.2717,0.2658,0.2595,0.2551,0.238,0.2313,0.26,0.2599,0.2598,0.2597,0,0.2119,0.2126,0.2124,0.2117,0.2119,0.2121,0.2149,0.2169,0.2247,0.2299,0.2378,0.2441,0.2579,0.2617,0.27,0.2706,0.2568,0.2696,0.2655,0.2455,0.2245,0.2167,0.2552,0.2588,0.2589,0.259,0.259,0.2591,0.2095,0.2085,0.208,0.2067,0.2067,0.2049,0.2029,0.2072,0.2104,0.2161,0.2279,0.2346,0.2489,0.26,0.2604,0.2582,0.2496,0.2511,0.2477,0.2317,0.2203,0.2568,0.2588,0.2589,0.259,0.2591,0.2591,0,0.2053,0.2041,0.2028,0.1999,0.1966,0.1986,0.1985,0.1956,0.1956,0.2054,0.2114,0.224,0.2315,0.2419,0.2478,0.2395,0.2238,0.2318,0.2079,0.2033,0.2405,0.2365,0.2308,0.2308,0.2308,0.2308,0.2308,0.2308,0.203,0.1996,0.1981,0.1901,0.1876,0.1799,0.1776,0.1757,0.1801,0.1836,0.1905,0.2003,0.2185,0.2297,0.2292,0.2226,0.2019,0.1894,0.1861,0.2172,0.2187,0.2201,0.2156,0.2056,0.2055,0.14,0.1396,0.1392]},{"header":{"parameterUnit":"m.s-1","parameterCategory":2,"la1":30.2991,"la2":30.254,"lo1":-89.0895,"lo2":-89.0444,"dy":0.0017,"dx":0.0017,"nx":28,"ny":28,"refTime":"2024-12-26T03:00:00:Z","depth":"0","parameterNumber":3,"parameterNumberName":"V-component_of_CURRENTS"},"data":[0,0,0,0,0,0,0,0,0,0,0,0,0,0,0,0,0,0,0,0,0,0,0,0,0,0,0,0,0,0,0,0,0,0,0,0,0,0,0,0,0,0,0,0,0,0,0,0,0,0,0,0,0,0,0,0,0,0,0.018,0.0179,0,0.0132,0.0131,0.013,0.0099,0.0099,0.0099,0.0099,0.0043,0.0042,0.004,0,0,0,0,0,0,0,0,0,0,0,0,0,0.0212,0.0211,0.018,0.0179,0.0179,0.0132,0.0131,0.013,0.0099,0.0099,0.0099,0.0099,0.0044,0.0042,0.004,0,0,0,0,0,0,0,0,0,0,0,0,0,0.0183,0.0211,0.018,0.0159,0.0156,0.0132,0.0131,0.013,0.0099,0.0099,0.0099,0.0099,0.0044,0.0042,0.004,0.0029,0,0,0.0034,0.0033,0,0,0,0,0,0,0,0,0.0185,0.0182,0.0162,0.016,0.0157,0.0122,0.0122,0.0096,0.0099,0.0119,0.0099,0.0099,0.007,0.0066,0.0055,0.0027,0.0024,0.0033,0.0032,0.0031,0.0031,0,0,0,0,0,0,0,0.0187,0.0183,0.0159,0.0162,0.0159,0.014,0.0136,0.0117,0.0095,0.0118,0.0116,0.0112,0.0068,0.0057,0.0054,0.0024,0.0033,0.0032,0.003,0.0029,-0.001,-0.001,0,0,0,0,0,0,0.0197,0.0186,0.0161,0.0158,0.0173,0.014,0.0135,0.0133,0.0095,0.009,0.0113,0.0111,0.0061,0.0056,0.0052,0.0053,0.0031,0.0029,0.0028,-0.001,-0.001,-0.0009,0,0,0,0,0,0,0.0198,0.0195,0.0163,0.0172,0.0166,0.014,0.0137,0.0132,0.0124,0.0092,0.0086,0.011,0.0061,0.0055,0.0042,0.005,0.0028,0.0026,-0.001,-0.001,-0.001,0.0046,0,0,0,0,0,0,0.0199,0.0196,0.0197,0.0172,0.0166,0.0156,0.0137,0.0131,0.0122,0.012,0.0088,0.0082,0.006,0.0045,0.004,0.0047,0.0025,-0.0011,-0.001,-0.001,0.0044,0.0048,0.0052,0,0,0,0,0,0.02,0.0205,0.0197,0.0194,0.0169,0.0157,0.0152,0.0131,0.0123,0.0123,0.0102,0.0083,0.0044,0.0044,0.0037,0.0044,-0.0011,-0.001,-0.001,0.0042,0.0048,0.0052,0,0,0,0,0,0,0.0218,0.0202,0.0192,0.0191,0.0178,0.0152,0.015,0.0136,0.0119,0.0118,0.0087,0.008,0.0071,0.0049,0.005,0.0033,0.0013,0.0012,0.0055,0.0059,0.0063,0.0078,0.0023,0,0,0,0,0,0.0223,0.0223,0.0204,0.0203,0.0199,0.0175,0.0168,0.0156,0.0138,0.013,0.0107,0.0084,0.0067,0.0058,0.0037,0.0029,0.0009,0.0029,0.0033,0.0036,0.0043,0.0019,0.0022,-0.0008,-0.0008,-0.0008,0,0,0.0228,0.0221,0.0219,0.0207,0.0194,0.0196,0.017,0.0165,0.0168,0.0127,0.0124,0.0098,0.0068,0.0059,0.0053,0.0044,0.0034,0.0037,0.0041,0.0046,0.002,0.0023,0.0025,-0.0007,-0.0008,-0.0008,0,0,0.0246,0.0234,0.0243,0.0237,0.0226,0.0213,0.0215,0.0194,0.0187,0.0178,0.0152,0.0134,0.0104,0.0087,0.0075,0.0088,0.0056,0.0078,0.0112,0.0088,0.0091,0.0092,0.0073,0.0073,0.0081,0.0081,0.0081,0,0.0254,0.0263,0.0243,0.0253,0.0253,0.0226,0.0238,0.0227,0.0205,0.0204,0.0185,0.0146,0.0118,0.0114,0.0116,0.0099,0.008,0.0098,0.0094,0.0096,0.0097,0.0076,0.0075,0.0084,0.0084,0.0083,0.0083,0,0.028,0.0288,0.0294,0.0298,0.0294,0.03,0.0286,0.0287,0.0271,0.0254,0.0243,0.0203,0.0181,0.0167,0.0144,0.0141,0.0124,0.0103,0.0085,0.0103,0.008,0.0078,0.0088,0.0087,0.0086,0.0085,0,0,0.0301,0.0311,0.0314,0.0328,0.0321,0.0324,0.0335,0.0336,0.035,0.0316,0.0325,0.0283,0.0256,0.024,0.0207,0.0184,0.0171,0.015,0.0147,0.0137,0.0121,0.0119,0.0116,0.0148,0.0148,0.0148,0.0104,0,0.0329,0.0362,0.0356,0.0387,0.0404,0.0389,0.0405,0.0402,0.0388,0.0389,0.0346,0.0334,0.0286,0.0276,0.0247,0.0194,0.0167,0.0185,0.01,0.0098,0.0099,0.0115,0.0174,0.0141,0.0102,0.0102,0.0101,0,0.0362,0.0381,0.0415,0.0445,0.0451,0.0462,0.0486,0.0497,0.0489,0.0476,0.0451,0.0413,0.038,0.0332,0.0252,0.0265,0.0199,0.015,0.0147,0.0125,0.0092,0.0115,0.0138,0.0073,0.0098,0.0098,0.0098,0,0.0395,0.0427,0.0458,0.0465,0.0488,0.0504,0.0518,0.0521,0.0547,0.0529,0.0536,0.0481,0.0465,0.0376,0.0276,0.0262,0.0185,0.0151,0.0086,0.0085,0.011,0.0111,0.0067,0.0089,0.0089,0.0089,0.0089,0,0.0433,0.0461,0.0478,0.0495,0.0544,0.0543,0.0588,0.0596,0.0614,0.0649,0.0583,0.0599,0.0475,0.0416,0.0306,0.0202,0.0207,0.0099,0.0076,0.0131,0.0134,0.0057,0.0004,0.0087,0.0088,0.0088,0.0088,0,0.0466,0.0475,0.0517,0.0546,0.0559,0.0595,0.0643,0.0681,0.0685,0.0729,0.0728,0.0694,0.0623,0.0494,0.0361,0.0255,0.01,0.0098,0.0173,0.016,0.0034,-0.0017,-0.0102,-0.0176,0.0021,0.0021,0.0021,0,0.0487,0.051,0.0554,0.0585,0.0599,0.0647,0.0688,0.0714,0.076,0.0794,0.0828,0.0779,0.0768,0.0579,0.0395,0.0214,0.0107,0.0125,0.0103,0.0044,-0.0031,-0.007,-0.013,0.0156,0.0157,0.0157,0.0158,0,0.0528,0.0539,0.0573,0.0633,0.0677,0.0736,0.0795,0.0848,0.0887,0.0934,0.0993,0.099,0.0831,0.0709,0.0459,0.0315,0.0087,0.0133,0.0057,0.0061,0.0032,-0.0054,0.0164,0.0165,0.0164,0.0163,0.0163,0.0163,0.0558,0.0588,0.0627,0.0686,0.0741,0.0817,0.0872,0.0953,0.1046,0.1131,0.1131,0.1178,0.1003,0.0692,0.0471,0.0167,0.0118,0.0087,0.0026,-0.0011,-0.007,0.0163,0.0144,0.0143,0.0142,0.0142,0.0141,0,0.0595,0.0623,0.0679,0.0746,0.081,0.0833,0.094,0.1008,0.1127,0.1244,0.1309,0.1332,0.1091,0.0798,0.0409,0.0147,0.0003,-0.0004,-0.0035,-0.01,0.0111,0.013,0.0129,0.0129,0.0129,0.0129,0.0129,0.0129,0.0614,0.0665,0.0687,0.0785,0.0836,0.0924,0.0987,0.1103,0.1219,0.1397,0.1509,0.1579,0.1478,0.0763,0.0261,0.0089,-0.0128,-0.0161,-0.0314,-0.0136,-0.0132,-0.0128,-0.0121,-0.0175,-0.0175,-0.0475,-0.0478,-0.048]}],[{"header":{"parameterUnit":"m.s-1","parameterCategory":2,"la1":30.2991,"la2":30.254,"lo1":-89.0895,"lo2":-89.0444,"dy":0.0017,"dx":0.0017,"nx":28,"ny":28,"refTime":"2024-12-26T03:00:00:Z","depth":"2","parameterNumber":2,"parameterNumberName":"U-component_of_CURRENTS"},"data":[0,0,0,0,0,0,0,0,0,0,0,0,0,0,0,0,0,0,0,0,0,0,0,0,0,0,0,0,0,0,0,0,0,0,0,0,0,0,0,0,0,0,0,0,0,0,0,0,0,0,0,0,0,0,0,0,0,0,0.2277,0.2277,0,0.2267,0.2267,0.2266,0.2248,0.2248,0.2248,0.2248,0.2222,0.2222,0.2221,0,0,0,0,0,0,0,0,0,0,0,0,0,0.2295,0.2295,0.2277,0.2277,0.2277,0.2267,0.2267,0.2266,0.2248,0.2248,0.2248,0.2248,0.2222,0.2222,0.2221,0,0,0,0,0,0,0,0,0,0,0,0,0,0.2285,0.2295,0.2277,0.2268,0.2267,0.2267,0.2267,0.2266,0.2248,0.2248,0.2248,0.2248,0.2223,0.2222,0.2221,0.2223,0,0,0.2219,0.2219,0,0,0,0,0,0,0,0,0.2285,0.2284,0.227,0.2269,0.2268,0.226,0.2264,0.2252,0.2249,0.2254,0.2248,0.2247,0.2235,0.2233,0.223,0.2222,0.222,0.2219,0.2218,0.2218,0.2218,0,0,0,0,0,0,0,0.2286,0.2285,0.2272,0.227,0.2269,0.2269,0.2267,0.2261,0.2245,0.2254,0.2253,0.2254,0.2234,0.2231,0.2229,0.222,0.2219,0.2218,0.2218,0.2218,0.224,0.2241,0,0,0,0,0,0,0.229,0.2285,0.2272,0.2272,0.2278,0.2269,0.2267,0.2262,0.2245,0.2243,0.2254,0.2253,0.2232,0.223,0.2228,0.2246,0.2218,0.2217,0.2217,0.2239,0.224,0.2242,0,0,0,0,0,0,0.229,0.2289,0.2273,0.228,0.2278,0.2269,0.2264,0.2262,0.2262,0.2246,0.2243,0.2257,0.2232,0.2229,0.2232,0.2244,0.2217,0.2216,0.2238,0.224,0.2241,0.2271,0,0,0,0,0,0,0.2291,0.2289,0.2288,0.228,0.2278,0.2277,0.2264,0.2262,0.2264,0.2262,0.2248,0.2245,0.2231,0.2233,0.2231,0.2243,0.2216,0.2237,0.2239,0.2241,0.2269,0.2274,0.2278,0,0,0,0,0,0.2291,0.2289,0.2288,0.2287,0.2276,0.2278,0.2277,0.2269,0.2264,0.2267,0.2261,0.2245,0.2244,0.2233,0.223,0.2242,0.2236,0.2238,0.224,0.2267,0.2273,0.2277,0,0,0,0,0,0,0.2294,0.2287,0.2286,0.2281,0.2283,0.2275,0.2277,0.2274,0.2271,0.227,0.2254,0.2251,0.2262,0.225,0.2239,0.2257,0.2239,0.2241,0.226,0.2266,0.227,0.2276,0.2215,0,0,0,0,0,0.2296,0.2292,0.2291,0.2288,0.229,0.2286,0.2287,0.2284,0.228,0.2278,0.2269,0.2265,0.2269,0.2266,0.2266,0.227,0.2277,0.2279,0.2283,0.2287,0.2292,0.2322,0.2329,0.2249,0.2249,0.2249,0,0,0.2295,0.2292,0.2289,0.2289,0.2288,0.2293,0.2285,0.2289,0.2294,0.2277,0.2279,0.2281,0.2276,0.2285,0.2289,0.2275,0.2314,0.229,0.2293,0.2296,0.2325,0.2333,0.234,0.2251,0.2251,0.225,0,0,0.2293,0.2292,0.229,0.2295,0.2301,0.2301,0.2305,0.2304,0.2305,0.2311,0.2307,0.2319,0.2312,0.2317,0.2317,0.2347,0.2341,0.2347,0.2366,0.2396,0.2402,0.2408,0.2428,0.2435,0.2344,0.2344,0.2344,0,0.2295,0.2289,0.2291,0.2296,0.2301,0.2306,0.2311,0.2316,0.2316,0.2325,0.2316,0.2335,0.2329,0.2352,0.2361,0.2357,0.2369,0.2344,0.2401,0.2407,0.2413,0.2431,0.2439,0.2346,0.2345,0.2345,0.2345,0,0.2293,0.2293,0.2295,0.23,0.2309,0.2315,0.2326,0.2338,0.2342,0.2347,0.2373,0.2373,0.2386,0.2389,0.238,0.242,0.2415,0.2407,0.2386,0.2423,0.244,0.2447,0.2348,0.2348,0.2347,0.2347,0,0,0.2278,0.229,0.229,0.2291,0.2313,0.2313,0.234,0.2359,0.2374,0.2386,0.2409,0.2425,0.2433,0.2436,0.2435,0.2456,0.2504,0.2448,0.2448,0.2464,0.2567,0.2548,0.2555,0.2507,0.2508,0.251,0.2563,0,0.2275,0.2277,0.2291,0.2295,0.2296,0.2323,0.2343,0.2366,0.2386,0.241,0.2434,0.2452,0.2448,0.2457,0.2482,0.2501,0.2525,0.249,0.2532,0.2533,0.251,0.2564,0.2322,0.2348,0.257,0.2571,0.2572,0,0.2264,0.2266,0.227,0.2286,0.2291,0.2299,0.2335,0.2356,0.2405,0.2425,0.2464,0.2481,0.2525,0.251,0.2573,0.2551,0.2565,0.2575,0.2577,0.2555,0.2529,0.2348,0.2354,0.2585,0.2584,0.2583,0.2582,0,0.2236,0.2249,0.2248,0.2254,0.2278,0.2291,0.231,0.2358,0.2384,0.2439,0.2468,0.2518,0.2551,0.2584,0.262,0.2598,0.2685,0.2655,0.2652,0.265,0.2451,0.2429,0.2701,0.2701,0.2701,0.27,0.27,0,0.2218,0.2214,0.223,0.2226,0.2234,0.2263,0.2284,0.2321,0.2378,0.241,0.247,0.251,0.2574,0.263,0.2644,0.2685,0.2711,0.2671,0.2671,0.2455,0.2435,0.264,0.2632,0.2702,0.2702,0.2702,0.2701,0,0.2183,0.2195,0.2191,0.221,0.2217,0.2222,0.2268,0.2285,0.235,0.2401,0.2423,0.2524,0.2598,0.2659,0.2722,0.272,0.2752,0.2755,0.2501,0.2471,0.2686,0.2679,0.275,0.275,0.275,0.275,0.275,0,0.2164,0.2158,0.2171,0.2168,0.2174,0.2188,0.2201,0.2264,0.2293,0.24,0.2425,0.2528,0.2585,0.2691,0.2686,0.2718,0.2773,0.253,0.2449,0.2703,0.2695,0.2688,0.2682,0.2188,0.2183,0.2179,0.2176,0,0.2129,0.2136,0.2134,0.2128,0.213,0.2133,0.216,0.218,0.2257,0.2305,0.238,0.2437,0.254,0.2475,0.2541,0.2522,0.2505,0.2457,0.2784,0.2229,0.2181,0.2171,0.2181,0.2143,0.2146,0.2148,0.215,0.2152,0.2106,0.2095,0.2091,0.2079,0.208,0.2062,0.2042,0.2074,0.21,0.2132,0.2251,0.2254,0.2303,0.2278,0.2223,0.2183,0.2364,0.2252,0.2259,0.2271,0.2213,0.217,0.2117,0.212,0.2123,0.2125,0.2127,0,0.2057,0.2052,0.204,0.2012,0.1972,0.2,0.1999,0.1952,0.1934,0.1984,0.2013,0.1872,0.1837,0.189,0.1773,0.1803,0.1732,0.1732,0.1603,0.164,0.1672,0.1579,0.1317,0.1314,0.1312,0.1309,0,0,0.2033,0.1996,0.198,0.1899,0.1882,0.1796,0.1774,0.1727,0.1725,0.1668,0.1643,0.1744,0.1841,0.1546,0.1518,0.1397,0.1499,0.1337,0.1991,0.1877,0.1905,0.1984,0.1885,0,0,0,0,0]},{"header":{"parameterUnit":"m.s-1","parameterCategory":2,"la1":30.2991,"la2":30.254,"lo1":-89.0895,"lo2":-89.0444,"dy":0.0017,"dx":0.0017,"nx":28,"ny":28,"refTime":"2024-12-26T03:00:00:Z","depth":"2","parameterNumber":3,"parameterNumberName":"V-component_of_CURRENTS"},"data":[0,0,0,0,0,0,0,0,0,0,0,0,0,0,0,0,0,0,0,0,0,0,0,0,0,0,0,0,0,0,0,0,0,0,0,0,0,0,0,0,0,0,0,0,0,0,0,0,0,0,0,0,0,0,0,0,0,0,0.013,0.013,0,0.0083,0.0082,0.0081,0.0051,0.0051,0.0051,0.0051,-0.0004,-0.0005,-0.0007,0,0,0,0,0,0,0,0,0,0,0,0,0,0.0162,0.0161,0.013,0.013,0.0129,0.0083,0.0082,0.0081,0.0051,0.0051,0.0051,0.0051,-0.0004,-0.0005,-0.0007,0,0,0,0,0,0,0,0,0,0,0,0,0,0.0133,0.0161,0.013,0.011,0.0108,0.0083,0.0082,0.0081,0.0051,0.0051,0.0051,0.0051,-0.0003,-0.0005,-0.0007,-0.0019,0,0,-0.0014,-0.0015,0,0,0,0,0,0,0,0,0.0135,0.0132,0.0113,0.0111,0.0109,0.0074,0.0073,0.0048,0.0051,0.0071,0.0051,0.0051,0.0022,0.0018,0.0007,-0.0022,-0.0024,-0.0014,-0.0015,-0.0016,-0.0017,0,0,0,0,0,0,0,0.0137,0.0134,0.011,0.0113,0.011,0.0091,0.0087,0.0068,0.0047,0.0069,0.0068,0.0064,0.0021,0.001,0.0006,-0.0025,-0.0014,-0.0016,-0.0017,-0.0018,-0.0058,-0.0058,0,0,0,0,0,0,0.0147,0.0136,0.0112,0.0109,0.0123,0.0091,0.0087,0.0084,0.0047,0.0042,0.0065,0.0063,0.0013,0.0008,0.0004,0.0005,-0.0016,-0.0018,-0.0019,-0.0059,-0.0058,-0.0058,0,0,0,0,0,0,0.0148,0.0146,0.0114,0.0122,0.0117,0.0091,0.0088,0.0083,0.0076,0.0043,0.0038,0.0063,0.0013,0.0007,-0.0006,0.0002,-0.0019,-0.0021,-0.0059,-0.0058,-0.0058,-0.0003,0,0,0,0,0,0,0.0149,0.0146,0.0147,0.0123,0.0117,0.0107,0.0088,0.0082,0.0074,0.0072,0.004,0.0034,0.0012,-0.0003,-0.0008,-0.0001,-0.0023,-0.0059,-0.0059,-0.0058,-0.0005,-0.0001,0.0003,0,0,0,0,0,0.0151,0.0155,0.0148,0.0145,0.012,0.0107,0.0102,0.0082,0.0074,0.0074,0.0054,0.0036,-0.0004,-0.0004,-0.0011,-0.0004,-0.0059,-0.0059,-0.0058,-0.0007,-0.0002,0.0003,0,0,0,0,0,0,0.0168,0.0152,0.0143,0.0142,0.0129,0.0103,0.0101,0.0087,0.007,0.007,0.0039,0.0032,0.0023,0.0001,0.0002,-0.0015,-0.0035,-0.0036,0.0006,0.0011,0.0015,0.0029,-0.0024,0,0,0,0,0,0.0173,0.0173,0.0154,0.0154,0.015,0.0126,0.0118,0.0107,0.0089,0.0081,0.0059,0.0036,0.0019,0.0009,-0.0011,-0.002,-0.004,-0.0021,-0.0017,-0.0013,-0.0006,-0.0031,-0.0028,-0.0057,-0.0057,-0.0057,0,0,0.0179,0.0171,0.017,0.0158,0.0145,0.0147,0.0121,0.0116,0.0119,0.0078,0.0075,0.0049,0.0019,0.001,0.0004,-0.0005,-0.0016,-0.0012,-0.0009,-0.0004,-0.003,-0.0027,-0.0024,-0.0056,-0.0056,-0.0056,0,0,0.0196,0.0185,0.0194,0.0187,0.0176,0.0163,0.0166,0.0144,0.0137,0.0128,0.0103,0.0085,0.0054,0.0038,0.0025,0.0038,0.0006,0.0028,0.0061,0.0037,0.004,0.0041,0.0022,0.0022,0.0031,0.0031,0.0031,0,0.0204,0.0213,0.0194,0.0203,0.0203,0.0176,0.0188,0.0177,0.0155,0.0154,0.0136,0.0096,0.0069,0.0063,0.0066,0.0048,0.0029,0.0048,0.0043,0.0045,0.0046,0.0025,0.0024,0.0033,0.0033,0.0033,0.0033,0,0.023,0.0237,0.0243,0.0247,0.0243,0.0249,0.0235,0.0235,0.022,0.0203,0.0192,0.0152,0.013,0.0116,0.0094,0.0089,0.0073,0.0052,0.0035,0.0052,0.0029,0.0027,0.0037,0.0036,0.0036,0.0035,0,0,0.025,0.026,0.0263,0.0277,0.0269,0.0272,0.0282,0.0283,0.0297,0.0262,0.0271,0.023,0.0204,0.0187,0.0155,0.0131,0.0118,0.0098,0.0096,0.0086,0.0069,0.0067,0.0064,0.0096,0.0096,0.0096,0.0052,0,0.0279,0.031,0.0303,0.0334,0.0349,0.0335,0.0351,0.0347,0.0333,0.0334,0.0291,0.0279,0.0233,0.0223,0.0194,0.0141,0.0115,0.0132,0.0048,0.0046,0.0047,0.0062,0.0063,0.0025,0.005,0.0049,0.0049,0,0.0311,0.0329,0.0362,0.039,0.0396,0.0407,0.0429,0.044,0.0431,0.0419,0.0394,0.0357,0.0324,0.0277,0.0198,0.0211,0.0146,0.0097,0.0094,0.0073,0.004,0.0009,0.002,0.0045,0.0045,0.0046,0.0046,0,0.0344,0.0374,0.0404,0.0411,0.0432,0.0449,0.0462,0.0464,0.0489,0.0471,0.0477,0.0423,0.0408,0.032,0.0222,0.0208,0.0131,0.0097,0.0033,0.0032,0.0007,0.0004,0.0035,0.0035,0.0035,0.0035,0.0036,0,0.0381,0.0408,0.0424,0.0441,0.0488,0.0487,0.0531,0.0538,0.0555,0.0588,0.0524,0.0539,0.0417,0.0358,0.025,0.0147,0.0151,0.0046,0.0023,0.0026,0.0026,0.0021,0.0019,0.0034,0.0034,0.0035,0.0035,0,0.0414,0.0422,0.0463,0.0491,0.0504,0.0539,0.0586,0.0623,0.0626,0.0668,0.0667,0.0632,0.0561,0.0434,0.0303,0.0199,0.0086,0.0043,0.006,0.004,-0.0006,-0.0004,-0.0032,-0.0033,-0.0033,-0.0033,-0.0033,0,0.0435,0.0457,0.05,0.053,0.0543,0.0591,0.063,0.0655,0.07,0.073,0.0763,0.0714,0.0698,0.0511,0.0319,0.0138,0.0106,0.0009,-0.002,0.0008,-0.0012,-0.001,-0.0007,-0.0036,-0.0036,-0.0036,-0.0036,0,0.0475,0.0486,0.0518,0.0578,0.0621,0.0678,0.0736,0.0786,0.0823,0.0865,0.092,0.0912,0.0743,0.0573,0.0322,0.019,0.0038,0.0,0.0024,-0.0012,0.0002,-0.0016,-0.0014,-0.0038,-0.0038,-0.0038,-0.0038,-0.0037,0.0505,0.0534,0.0573,0.0631,0.0685,0.0758,0.0812,0.0873,0.0956,0.0998,0.1016,0.098,0.0803,0.0478,0.0273,0.0037,0.0052,-0.0053,-0.0052,-0.0051,-0.0036,-0.0023,-0.0065,-0.0065,-0.0065,-0.0065,-0.0065,0,0.0534,0.057,0.0624,0.0689,0.0741,0.0776,0.0878,0.0907,0.0994,0.1031,0.1059,0.0867,0.0702,0.0485,0.0145,-0.0039,-0.0068,-0.0114,-0.0108,-0.0105,-0.0102,-0.009,-0.0134,-0.0134,-0.0135,-0.0136,0,0,0.0552,0.0597,0.0619,0.0708,0.0766,0.0824,0.0884,0.0932,0.0964,0.0978,0.0962,0.0949,0.0738,0.0475,0.0235,0.0046,0.0001,-0.0003,0.0071,0.011,0.0114,-0.0046,-0.0021,0,0,0,0,0]}],[{"header":{"parameterUnit":"m.s-1","parameterCategory":2,"la1":30.2991,"la2":30.254,"lo1":-89.0895,"lo2":-89.0444,"dy":0.0017,"dx":0.0017,"nx":28,"ny":28,"refTime":"2024-12-26T03:00:00:Z","depth":"4","parameterNumber":2,"parameterNumberName":"U-component_of_CURRENTS"},"data":[0,0,0,0,0,0,0,0,0,0,0,0,0,0,0,0,0,0,0,0,0,0,0,0,0,0,0,0,0,0,0,0,0,0,0,0,0,0,0,0,0,0,0,0,0,0,0,0,0,0,0,0,0,0,0,0,0,0,0.1414,0.1415,0,0.146,0.146,0.146,0.15,0.15,0.1501,0.1501,0.1556,0.1557,0.1558,0,0,0,0,0,0,0,0,0,0,0,0,0,0.1362,0.1362,0.1414,0.1415,0.1416,0.146,0.146,0.146,0.15,0.15,0.1501,0.1502,0.1556,0.1557,0.1558,0,0,0,0,0,0,0,0,0,0,0,0,0,0.1392,0.1363,0.1414,0.1442,0.1445,0.1459,0.146,0.1461,0.1499,0.15,0.1501,0.1502,0.1555,0.1557,0.1558,0.1548,0,0,0.1562,0.1563,0,0,0,0,0,0,0,0,0.139,0.1394,0.1437,0.144,0.1443,0.1476,0.1462,0.1491,0.1499,0.1477,0.1501,0.1502,0.1531,0.1534,0.1538,0.1551,0.1553,0.1562,0.1563,0.1564,0.1564,0,0,0,0,0,0,0,0.1388,0.1392,0.1431,0.1438,0.1442,0.1452,0.1457,0.1467,0.1497,0.1479,0.1482,0.149,0.1532,0.1537,0.154,0.1554,0.1562,0.1563,0.1564,0.1565,0.1659,0.1661,0,0,0,0,0,0,0.1385,0.139,0.1429,0.1432,0.142,0.1452,0.1458,0.1463,0.1497,0.1503,0.1489,0.1491,0.1534,0.1538,0.1542,0.1617,0.1564,0.1565,0.1566,0.1658,0.166,0.1662,0,0,0,0,0,0,0.1383,0.1388,0.1427,0.1413,0.142,0.1452,0.1458,0.1464,0.15,0.1505,0.1511,0.1523,0.1535,0.154,0.1583,0.1616,0.1565,0.1567,0.1656,0.1658,0.1661,0.1713,0,0,0,0,0,0,0.1382,0.1387,0.1405,0.1413,0.142,0.1457,0.1458,0.1464,0.1502,0.1507,0.1536,0.154,0.1536,0.1581,0.1584,0.1617,0.1568,0.1654,0.1657,0.166,0.1709,0.1717,0.1723,0,0,0,0,0,0.138,0.1395,0.1406,0.1412,0.1439,0.1458,0.1463,0.1488,0.1504,0.1523,0.1548,0.1541,0.1604,0.1583,0.1587,0.1621,0.1652,0.1656,0.166,0.1705,0.1715,0.1723,0,0,0,0,0,0,0.1382,0.14,0.1413,0.1434,0.1456,0.1466,0.1492,0.1506,0.154,0.1556,0.1559,0.1565,0.1616,0.1612,0.159,0.1659,0.1628,0.1633,0.1662,0.1671,0.1678,0.1676,0.1569,0,0,0,0,0,0.139,0.141,0.1426,0.1448,0.1462,0.1483,0.1501,0.1518,0.1541,0.1559,0.1579,0.1604,0.1628,0.1646,0.1664,0.1698,0.1697,0.1724,0.1732,0.1738,0.174,0.1772,0.1783,0.1674,0.1674,0.1674,0,0,0.1398,0.1412,0.1424,0.1451,0.1472,0.1494,0.1497,0.1533,0.156,0.1558,0.1613,0.1633,0.1644,0.1686,0.1709,0.1691,0.1769,0.1743,0.1748,0.1747,0.1777,0.1788,0.1797,0.1677,0.1676,0.1676,0,0,0.1412,0.1437,0.1456,0.1477,0.1514,0.1525,0.1543,0.1573,0.1601,0.1645,0.1657,0.1698,0.1732,0.1748,0.1758,0.1817,0.1808,0.183,0.1865,0.1896,0.1905,0.1913,0.1926,0.1934,0.1833,0.1833,0.1833,0,0.1425,0.1447,0.1467,0.149,0.1514,0.1543,0.1569,0.1595,0.1639,0.1666,0.1674,0.1746,0.1759,0.1806,0.183,0.1833,0.1845,0.1828,0.1905,0.1913,0.192,0.1931,0.1939,0.1836,0.1835,0.1835,0.1835,0,0.1442,0.1474,0.149,0.1527,0.1554,0.1585,0.1618,0.166,0.1697,0.172,0.1789,0.1813,0.1854,0.187,0.1868,0.193,0.1921,0.191,0.1879,0.1934,0.1942,0.195,0.184,0.1839,0.1838,0.1837,0,0,0.143,0.149,0.15,0.1524,0.158,0.1596,0.1654,0.1703,0.1742,0.1797,0.1848,0.1901,0.1924,0.1937,0.195,0.1979,0.204,0.1973,0.1973,0.1979,0.2106,0.197,0.1966,0.2049,0.205,0.2052,0.2092,0,0.1442,0.1486,0.1518,0.1567,0.159,0.1641,0.1685,0.1737,0.1787,0.1843,0.1888,0.1941,0.1946,0.1977,0.2012,0.2035,0.2064,0.2029,0.2058,0.2058,0.1926,0.1971,0.2057,0.2097,0.2099,0.21,0.2101,0,0.1441,0.1473,0.1522,0.1584,0.1601,0.1639,0.1716,0.1761,0.1842,0.1883,0.195,0.1985,0.2052,0.2042,0.2115,0.2097,0.2111,0.212,0.2122,0.198,0.1937,0.2033,0.2116,0.2114,0.2113,0.2112,0.2112,0,0.1403,0.1471,0.1512,0.1535,0.161,0.1652,0.17,0.178,0.1826,0.1918,0.1962,0.2038,0.2089,0.2126,0.2162,0.2149,0.2225,0.2203,0.2091,0.2082,0.2168,0.216,0.225,0.225,0.225,0.225,0.2249,0,0.1382,0.1418,0.1502,0.1522,0.1576,0.1638,0.1705,0.1763,0.1852,0.1898,0.1985,0.2026,0.2118,0.217,0.2184,0.2161,0.2248,0.21,0.2085,0.2189,0.2183,0.2174,0.2164,0.2251,0.2251,0.225,0.225,0,0.133,0.1388,0.1438,0.1528,0.156,0.16,0.1705,0.1744,0.184,0.1905,0.194,0.2047,0.2102,0.217,0.223,0.2175,0.2172,0.2144,0.2255,0.2245,0.2,0.1993,0.2007,0.2003,0.1999,0.1996,0.1994,0,0.1303,0.1326,0.143,0.1462,0.151,0.1581,0.1624,0.1728,0.1767,0.1892,0.1908,0.2009,0.2062,0.2037,0.2117,0.2129,0.2109,0.2089,0.2035,0.1992,0.1977,0.1976,0.1974,0.1988,0.1987,0.1986,0.1985,0,0.1253,0.1307,0.1349,0.1413,0.1467,0.1513,0.1585,0.16,0.1706,0.1812,0.1824,0.1848,0.1906,0.1944,0.1977,0.1981,0.2088,0.205,0.2057,0.2005,0.1968,0.1956,0.1959,0.1972,0.1974,0.1975,0.1975,0,0.1222,0.1239,0.1303,0.1347,0.141,0.142,0.1467,0.1501,0.1549,0.1678,0.1677,0.1775,0.1878,0.1868,0.1895,0.1893,0.1858,0.1788,0.1808,0.1824,0.1746,0.1671,0.1571,0,0,0,0,0,0.1181,0.1189,0.1227,0.1262,0.1318,0.1351,0.1427,0.1474,0.1574,0.1536,0.1599,0.1636,0.1659,0.1719,0.168,0.1826,0.1877,0.1772,0.181,0.19,0.1915,0.1841,0,0,0,0,0,0,0.1153,0.119,0.1197,0.1181,0.1188,0.1229,0.1271,0.1336,0.1322,0.1431,0.1457,0.1538,0.1598,0.1668,0.165,0.1668,0.1657,0.1841,0.1837,0.1891,0.1905,0.1917,0.1846,0,0,0,0,0]},{"header":{"parameterUnit":"m.s-1","parameterCategory":2,"la1":30.2991,"la2":30.254,"lo1":-89.0895,"lo2":-89.0444,"dy":0.0017,"dx":0.0017,"nx":28,"ny":28,"refTime":"2024-12-26T03:00:00:Z","depth":"4","parameterNumber":3,"parameterNumberName":"V-component_of_CURRENTS"},"data":[0,0,0,0,0,0,0,0,0,0,0,0,0,0,0,0,0,0,0,0,0,0,0,0,0,0,0,0,0,0,0,0,0,0,0,0,0,0,0,0,0,0,0,0,0,0,0,0,0,0,0,0,0,0,0,0,0,0,0.0018,0.0017,0,-0.0014,-0.0014,-0.0014,-0.0037,-0.0037,-0.0037,-0.0037,-0.008,-0.0081,-0.0082,0,0,0,0,0,0,0,0,0,0,0,0,0,0.0038,0.0037,0.0018,0.0017,0.0017,-0.0014,-0.0014,-0.0015,-0.0037,-0.0037,-0.0037,-0.0037,-0.0079,-0.0081,-0.0082,0,0,0,0,0,0,0,0,0,0,0,0,0,0.0019,0.0037,0.0018,0.0003,0.0001,-0.0013,-0.0014,-0.0015,-0.0037,-0.0037,-0.0037,-0.0037,-0.0079,-0.008,-0.0082,-0.0088,0,0,-0.0087,-0.0087,0,0,0,0,0,0,0,0,0.002,0.0019,0.0005,0.0004,0.0002,-0.0021,-0.0023,-0.004,-0.0037,-0.0023,-0.0037,-0.0037,-0.006,-0.0064,-0.007,-0.009,-0.0092,-0.0087,-0.0088,-0.0088,-0.0089,0,0,0,0,0,0,0,0.0022,0.002,0.0005,0.0005,0.0003,-0.0009,-0.0012,-0.0026,-0.0041,-0.0024,-0.0026,-0.0028,-0.0062,-0.0068,-0.0071,-0.0093,-0.0087,-0.0088,-0.0089,-0.009,-0.0117,-0.0117,0,0,0,0,0,0,0.0028,0.0021,0.0006,0.0004,0.0012,-0.0009,-0.0012,-0.0014,-0.0041,-0.0045,-0.0028,-0.0029,-0.0066,-0.0069,-0.0073,-0.007,-0.0088,-0.009,-0.0091,-0.0117,-0.0117,-0.0117,0,0,0,0,0,0,0.0029,0.0027,0.0007,0.0012,0.0009,-0.0009,-0.0011,-0.0014,-0.002,-0.0043,-0.0048,-0.0029,-0.0066,-0.0071,-0.008,-0.0072,-0.0091,-0.0092,-0.0117,-0.0117,-0.0117,-0.0071,0,0,0,0,0,0,0.003,0.0028,0.0029,0.0013,0.0009,0.0003,-0.0011,-0.0015,-0.0021,-0.0022,-0.0046,-0.005,-0.0066,-0.0077,-0.0081,-0.0074,-0.0093,-0.0118,-0.0117,-0.0117,-0.0073,-0.007,-0.0067,0,0,0,0,0,0.003,0.0034,0.0029,0.0027,0.0011,0.0004,0.0,-0.0014,-0.002,-0.002,-0.0034,-0.0049,-0.0078,-0.0078,-0.0083,-0.0076,-0.0118,-0.0117,-0.0117,-0.0075,-0.007,-0.0067,0,0,0,0,0,0,0.0043,0.0032,0.0026,0.0026,0.0018,0.0,-0.0001,-0.001,-0.0022,-0.0023,-0.0046,-0.0051,-0.0057,-0.0074,-0.0073,-0.0084,-0.0101,-0.0101,-0.0067,-0.0063,-0.006,-0.0048,-0.0094,0,0,0,0,0,0.0047,0.0048,0.0035,0.0035,0.0033,0.0017,0.0012,0.0004,-0.0009,-0.0014,-0.003,-0.0047,-0.0059,-0.0066,-0.0081,-0.0085,-0.0103,-0.0085,-0.0082,-0.0079,-0.0073,-0.0094,-0.0092,-0.0115,-0.0115,-0.0115,0,0,0.0051,0.0046,0.0046,0.0038,0.003,0.0033,0.0013,0.001,0.0015,-0.0017,-0.0017,-0.0037,-0.0058,-0.0063,-0.0067,-0.0075,-0.0082,-0.0078,-0.0075,-0.0071,-0.0093,-0.0091,-0.0089,-0.0115,-0.0115,-0.0115,0,0,0.0063,0.0057,0.0063,0.006,0.0053,0.0045,0.0047,0.0032,0.0029,0.0024,0.0005,-0.0008,-0.0029,-0.004,-0.0049,-0.0037,-0.0064,-0.0044,-0.0017,-0.0037,-0.0035,-0.0033,-0.0052,-0.0053,-0.0042,-0.0042,-0.0042,0,0.007,0.0076,0.0064,0.0071,0.0073,0.0054,0.0064,0.0059,0.0044,0.0045,0.003,0.0004,-0.0017,-0.0018,-0.0015,-0.0028,-0.0045,-0.0028,-0.0032,-0.0031,-0.003,-0.0049,-0.0051,-0.0039,-0.004,-0.004,-0.004,0,0.0087,0.0094,0.0098,0.0103,0.0104,0.0109,0.0102,0.0105,0.0095,0.0085,0.0079,0.005,0.0036,0.0025,0.0008,0.0006,-0.0009,-0.0025,-0.0039,-0.0024,-0.0046,-0.0048,-0.0036,-0.0037,-0.0038,-0.0038,0,0,0.0098,0.0109,0.0112,0.0123,0.0122,0.0127,0.014,0.0144,0.0157,0.0134,0.0143,0.0115,0.0096,0.0084,0.006,0.0041,0.0029,0.0014,0.0011,-0.0,-0.0015,-0.0021,-0.0024,0.0012,0.0011,0.0011,-0.0032,0,0.0117,0.0141,0.014,0.0166,0.0178,0.0174,0.0192,0.0194,0.0187,0.0191,0.0161,0.0155,0.012,0.0115,0.0091,0.0047,0.0025,0.0042,-0.0032,-0.0034,-0.0037,-0.0026,0.0011,-0.0033,-0.0034,-0.0034,-0.0035,0,0.0135,0.015,0.0178,0.0206,0.0212,0.0226,0.0251,0.0264,0.0265,0.0258,0.0243,0.0217,0.0194,0.0157,0.0092,0.0104,0.005,0.0009,0.0006,-0.0016,-0.0043,-0.0053,-0.0039,-0.0038,-0.0038,-0.0038,-0.0038,0,0.0149,0.0178,0.0203,0.0211,0.0237,0.0256,0.0273,0.0284,0.0307,0.03,0.0307,0.0269,0.0258,0.0187,0.0107,0.0099,0.0029,0.0005,-0.0053,-0.0054,-0.0056,-0.0058,-0.0047,-0.0047,-0.0047,-0.0047,-0.0047,0,0.0167,0.0189,0.0215,0.0228,0.0271,0.0281,0.0323,0.0334,0.0357,0.0384,0.0344,0.0352,0.0265,0.0216,0.0128,0.0039,0.0044,-0.0044,-0.0064,-0.0037,-0.0035,-0.0058,-0.0059,-0.0048,-0.0048,-0.0048,-0.0047,0,0.0176,0.0191,0.0225,0.0261,0.0278,0.0309,0.0364,0.0395,0.0409,0.0443,0.0446,0.0422,0.0359,0.0264,0.0154,0.0076,-0.0018,-0.0056,-0.0012,-0.0029,-0.0096,-0.0093,-0.0122,-0.0123,-0.0123,-0.0124,-0.0124,0,0.0181,0.0199,0.0248,0.0276,0.0294,0.0342,0.038,0.0416,0.045,0.0484,0.0503,0.0467,0.0429,0.0283,0.0172,0.0012,-0.0021,-0.0076,-0.0095,-0.0086,-0.0102,-0.0099,-0.0097,-0.0125,-0.0125,-0.0125,-0.0125,0,0.0192,0.021,0.0239,0.0295,0.0339,0.039,0.0445,0.0479,0.0521,0.0536,0.0549,0.048,0.0413,0.0294,0.0174,0.0053,-0.0042,-0.0081,-0.0081,-0.01,-0.0089,-0.0104,-0.0101,-0.0127,-0.0126,-0.0126,-0.0126,0,0.0202,0.0223,0.0262,0.0312,0.0367,0.0421,0.0452,0.0498,0.0538,0.0574,0.0578,0.0505,0.0472,0.0315,0.0203,0.0089,0.0048,-0.001,-0.0015,-0.0015,0.0024,0.0055,0.005,0,0,0,0,0,0.021,0.0231,0.0276,0.0328,0.0384,0.0415,0.0489,0.0518,0.0561,0.0573,0.0579,0.0514,0.037,0.0319,0.0204,0.0175,0.0016,0.0032,-0.0057,-0.0135,-0.0133,-0.0108,0,0,0,0,0,0,0.0215,0.0253,0.027,0.033,0.0365,0.0428,0.0474,0.0508,0.0521,0.0549,0.0484,0.046,0.0328,0.0429,0.0192,0.0161,0.0082,-0.0027,-0.003,-0.0136,-0.0134,-0.0133,-0.0106,0,0,0,0,0]}]]